User: anonymous   Login
Location: Unspecified
(0.0000°N, 0.0000°E)
Time: 02:06:20
(UTC+00:00)
Language:

STARLINK-34945 - Orbit

View from above orbital plane
View from above orbital plane
View from above satellite
View from above satellite

Ground track
Ground track

The orbit is defined by the following mean orbital elements,

1 65185U          26145.40612160 +.00000000 +00000-0 +52635-3 0 00000
2 65185  97.4498  17.8853 0002023 106.0361 254.1089 15.05658423    02
Epoch (UTC): 25 May 2026 09:44:48
Eccentricity: 0.0002023
inclination: 97.4498°
perigee height: 548 km
apogee height: 551 km
right ascension of ascending node: 17.8853°
argument of perigee: 106.0361°
revolutions per day: 15.05658423
mean anomaly at epoch: 254.1089°

The dashed part of the orbit path shows where the satellite is in the earth's shadow,  

DLR